Starlink 30715

operational
NORAD ID: 57941 Int'l Des: 2023-148 Owner: SPXS Country: US Constellation: starlink
LEOCIRCULAR

About Starlink 30715

Description loading...

Live Position

Loading 3D Globe...

Upcoming Passes

Altitude History

Altitude vs Time

uPlot chart will show altitude changes over time

Two-Line Element Set

1 57941U 23148G 25304.15244517 .00001333 00000-0 57128-4 0 9994
2 57941 53.1602 255.6769 0001260 84.5334 275.5810 15.30191661118732
Epoch: Oct 31, 2025 • Age: 15 hours

Current Status

Altitude 476.4 km
Velocity 7.63 km/s
Sub-Earth Point -1.27°S, 115.08°E
Launch Date Sep 25, 2023
Age 2 years
Type internet

Technical Details

Classification Payload
Mass 730.00 kg
Dry Mass 700.00 kg
Total Mass 730.00 kg
Length 0.30 m
Diameter 4.10 m
Span 29.00 m
Shape Box + pan
Manufacturer SPXS
Bus Type Starlink V2M
Phase Status In Orbit
Owner/State SPXS/US

Large Constellations

Loading constellations...